User: anonymous   Login
Location: Mactaquac Provincial Park
(45.9573°N, 66.8897°W)
Time: 13:22:07
(UTC-04:00)
Language:

Cosmos 1766 - Orbit

View from above orbital plane
View from above orbital plane
View from above satellite
View from above satellite

Ground track
Ground track

The orbit data is extracted from the following two-line orbital elements,

1 16881U 86055A   14352.15855266  .00003715  00000-0  24714-3 0   393
2 16881 082.5073 194.2671 0011016 321.1027 038.9407 15.06835706543897
Epoch (UTC): 18 December 2014 03:48:18
Eccentricity: 0.0011016
inclination: 82.5073°
perigee height: 538 km
apogee height: 553 km
right ascension of ascending node: 194.2671°
argument of perigee: 321.1027°
revolutions per day: 15.06835706
mean anomaly at epoch: 38.9407°
orbit number at epoch: 54389

The dashed part of the orbit path shows where the satellite is in the earth's shadow,  

DLR